Regional Weather Roundup
Issued by NWS

Home | Current Version | Previous Version | Text Only | Print | Product List | Glossary On
Versions: 1 2 3 4 5 6 7 8 9 10 11 12 13 14 15 16 17 18 19 20 21 22 23 24 25 26 27 28 29 30 31 32 33 34 35 36 37 38 39 40 41 42 43 44 45 46 47 48 49 50
000
ASUS43 KLSX 231207
RWRMO

WEATHER SUMMARY FOR MISSOURI
NATIONAL WEATHER SERVICE SPRINGFIELD MO
700 AM CDT SAT SEP 23 2017

NOTE: "FAIR" INDICATES FEW OR NO CLOUDS BELOW 12,000 FEET WITH NO
       SIGNIFICANT WEATHER AND/OR OBSTRUCTIONS TO VISIBILITY.
       CURRENT SKY AND/OR WEATHER CONDITIONS ARE NOT AVAILABLE FOR
       CHILLICOTHE AND FARMINGTON.

MOZ001>031-035>038-043-044-053-054-231300-
...NORTHERN AND WESTERN MISSOURI...

CITY           SKY/WX    TMP DP  RH WIND       PRES   REMARKS
KANSAS CTY INT CLEAR     70  67  90 S8        29.99R
6HR MIN TEMP:  69; 6HR MAX TEMP:  72;

KANSAS C DTWN  CLEAR     74  68  81 S8        29.99R
6HR MIN TEMP:  73; 6HR MAX TEMP:  79;

LEE`S SUMMIT   CLEAR     72  68  87 S9        30.01R
6HR MIN TEMP:  72; 6HR MAX TEMP:  75;

ST JOSEPH      CLEAR     69  68  96 S6        29.98R
6HR MIN TEMP:  69; 6HR MAX TEMP:  73;

CHILLICOTHE      N/A     67  67 100 CALM      30.02R
6HR MIN TEMP:  67; 6HR MAX TEMP:  72;

KIRKSVILLE     CLEAR     66  63  90 SE5       30.04R
6HR MIN TEMP:  65; 6HR MAX TEMP:  71;


$$
MOZ066>068-077>081-088>096-101>105-231300-
...SOUTHWEST MISSOURI...

CITY           SKY/WX    TMP DP  RH WIND       PRES   REMARKS
SPRINGFIELD    CLEAR     69  67  93 SE9       30.03R
6HR MIN TEMP:  68; 6HR MAX TEMP:  73;

JOPLIN         CLEAR     69  68  96 E6        30.01R
6HR MIN TEMP:  69; 6HR MAX TEMP:  74;

BRANSON        PTCLDY    66  64  94 CALM      30.06R

$$
MOZ032>034-039>042-045>050-055>058-069>072-231300-
...CENTRAL MISSOURI...

CITY           SKY/WX    TMP DP  RH WIND       PRES   REMARKS
COLUMBIA       CLEAR     69  66  90 SE6       30.04R
6HR MIN TEMP:  68; 6HR MAX TEMP:  74;

JEFFERSON CITY CLEAR     66  63  90 SE3       30.03R
6HR MIN TEMP:  66; 6HR MAX TEMP:  71;

ROLLA          CLEAR     67  65  93 S7        30.06R
6HR MIN TEMP:  65; 6HR MAX TEMP:  72;

SEDALIA        CLEAR     68  67  96 S6        30.03R
6HR MIN TEMP:  68; 6HR MAX TEMP:  74;

WHITEMAN AFB   CLEAR     68  68 100 S6        30.01R
WARRENSBURG    CLEAR     68  64  88 S5        30.01R
OSAGE BEACH    CLEAR     68  65  90 SE3       30.04R

$$
MOZ051-052-059>065-231300-
...EAST CENTRAL MISSOURI...

CITY           SKY/WX    TMP DP  RH WIND       PRES   REMARKS
ST LOUIS INTL  PTCLDY    69  66  90 E3        30.05R
6HR MIN TEMP:  69; 6HR MAX TEMP:  77;

SPIRIT OF STL  CLEAR     65  65 100 CALM      30.03R
6HR MIN TEMP:  64; 6HR MAX TEMP:  68;

ST CHARLES     CLEAR     67  66  97 CALM      30.03R FOG
6HR MIN TEMP:  66; 6HR MAX TEMP:  71;


$$
MOZ072>076-082>087-097>100-106>115-231300-
...SOUTH CENTRAL AND SOUTHEAST MISSOURI...

CITY           SKY/WX    TMP DP  RH WIND       PRES   REMARKS
CAPE GIRARDEAU FOG       63  63 100 CALM      30.04R VSB 1/4
6HR MIN TEMP:  62; 6HR MAX TEMP:  69;

FARMINGTON     CLEAR     62  61  96 CALM      30.07R
6HR MIN TEMP:  62; 6HR MAX TEMP:  68;

POPLAR BLUFF   CLEAR     65  65 100 CALM      30.03R FOG
6HR MIN TEMP:  65; 6HR MAX TEMP:  69;

WEST PLAINS    CLEAR     64  62  93 CALM      30.07R
6HR MIN TEMP:  64; 6HR MAX TEMP:  72;


$$



USA.gov is the U.S. government's official web portal to all federal, state and local government web resources and services.